Tracking 23114 objects as of 16-May-2021
HD Live streaming from Space Station
objects crossing your sky now

STARLINK-2475

Track STARLINK-2475 now!
10-day predictions
STARLINK-2475 is classified as:


NORAD ID: 48133
Int'l Code: 2021-027AT
Perigee: 409.3 km
Apogee: 410.8 km
Inclination: 53.0 °
Period: 92.6 minutes
Semi major axis: 6781 km
RCS: Unknown
Launch date: April 7, 2021
Source: United States (US)
Launch site: AIR FORCE EASTERN TEST RANGE (AFETR)
aabbcc
Your satellite tracking list
Your tracking list is empty




NASA's NSSDC Master Catalog

Two Line Element Set (TLE):
1 48133U 21027AT  21136.58334491 -.01090251  00000-0 -17793-1 0  9999
2 48133  53.0456 147.5814 0001135  98.1209 195.9220 15.54733360  1829
Source of the keplerian elements: AFSPC